THOR ABLESTAR DEB, 119

Orbit data source: Space-Track

THOR ABLESTAR DEB, 119 is space debris in LEO originally from a launch on Thu, 29 Jun 1961 UTC launched from the Air Force Eastern Test Range (AFETR). Debris objects in space refer to the collection of defunct objects orbiting the Earth. Examples of debris include non-operational satellites, rocket bodies, and fragments generated from explosions, collisions, or faulty payload assembly.

Loading next visibility...
Identifier
119, 1961-015D
Orbit
LEO
Country
Flag of USUS
Related business
Manufacturer
Unknown
Mission
Spacecraft
Bus & Motor
Unknown
Mass
Unknown
Launch date (UTC)
1961-06-29 (65 years ago)
Launch vehicle
Unknown
Launch site
Air Force Eastern Test Range (AFETR)
Object type
Payload
Rocket body
Debris
Shape & HBR
Unknown shape, 0.2 m
Radar Cross Section
Medium (>0.1 m² and <1 m²)

Expand to show TLE details & history
Last TLE update: 13 hours ago

TLE from 13 hours ago
0 THOR ABLESTAR DEB
1 00119U 61015D   26207.61082842  .00000665  00000-0  28780-3 0  9997
2 00119  66.7270 285.9746 0106234 233.5174 125.6100 14.27377596363944
Epoch: 2026-07-26T14:39Z
TLE epoch observation values (Epoch: 2026-07-26T14:39:35.575Z)
Latitude
-0.00002°
Longitude
121.77008°
Altitude
847.556 km
Speed
7.406 km/s
True Right ascension
19h 03m 53s
True Declination
0° 00' 00"
Sunlit
Object was in full shadow at epoch
Visualization orbit readout
Latitude
Unknown
Longitude
Unknown
Altitude
Unknown
Speed
Unknown
Apparent Right ascension
Unknown
Apparent Declination
Unknown
Sunlit
N/A
Visualization observer readout
Local Sidereal Time
16:48:27
Azimuth
Unknown
Elevation
Unknown
Doppler factor
Unknown
Orbital elements
Apogee altitude
875.128 km
Perigee altitude
722.639 km
Semi-major axis
7,177.02 km
Eccentricity
0.01062
Inclination
66.727°
RAAN
285.9746°
Arg. of periapsis
233.5174°
True anomaly
126.59206°
Mean anomaly
125.61°
Eccentric anomaly
126.10179°
Mean motion
3.56966 °/min
Orbital period
100.85 mins
BSTAR
0.0002878
Loading maneuver chart data...
Computing Atmospheric mass density...

Documentation

Showing up to 5 results
|